Regional Weather Roundup
Issued by NWS

Home | Current Version | Previous Version | Text Only | Print | Product List | Glossary Off
Versions: 1 2 3 4 5 6 7 8 9 10 11 12 13 14 15 16 17 18 19 20 21 22 23 24 25 26 27 28 29 30 31 32 33 34 35 36 37 38 39 40 41 42 43 44 45 46 47 48 49 50

000
ASUS45 KBOU 232107
RWRCO

WEATHER ROUNDUP FOR COLORADO
NATIONAL WEATHER SERVICE DENVER/BOULDER CO
300 PM MDT SAT JUL 23 2016

NOTE: "FAIR" INDICATES FEW OR NO CLOUDS BELOW 12000 FEET WITH NO
SIGNIFICANT WEATHER AND/OR OBSTRUCTIONS TO VISIBILITY.

COZ001>005-013-030-031-232200-
...NORTHWEST COLORADO...

CITY           SKY/WX    TMP DP  RH WIND       PRES   REMARKS
CRAIG          FAIR      92  33  12 SW14G32   30.16F
HAYDEN         FAIR      84  41  21 W8        30.20F
MEEKER         FAIR      88  44  21 VRB7G17   30.17F
MOUNT WERNER   NOT AVBL
STEAMBOAT SPGS FAIR      85  45  24 SW12G18   30.23F
WALDEN         FAIR      81  36  19 W10G21    30.35F
$$

COZ006>008-011-232200-
...WEST CENTRAL VALLEYS...

CITY           SKY/WX    TMP DP  RH WIND       PRES   REMARKS
GRAND JUNCTION FAIR      95  49  20 VRB3      30.06F
MONTROSE       FAIR      93  45  19 N7        30.15F
EAGLE          MOSUNNY   91  37  15 W20G26    30.20F
RIFLE          FAIR      95  41  15 W14       30.10F
DELTA          FAIR      98  43  15 S8        30.10F
NUCLA          FAIR      91  39  16 NW9       30.20F
$$

COZ017>023-064>068-232200-
...SOUTHWEST COLORADO...

CITY           SKY/WX    TMP DP  RH WIND       PRES   REMARKS
DURANGO        LGT RAIN  83  48  29 SW9       30.21F
CORTEZ         FAIR      94  41  16 W8G18     30.15F
PAGOSA SPRINGS PTSUNNY   78  36  22 N7        30.33S
TELLURIDE      FAIR      78  40  25 NW6       30.46F
WOLF CREEK PAS CLOUDY    54  37  54 N10G22    30.74R
$$

COZ009-010-012-014-032>034-037-058>063-232200-
...CENTRAL COLORADO...

CITY           SKY/WX    TMP DP  RH WIND       PRES   REMARKS
ASPEN          FAIR      82  48  30 S9        30.32F
BUENA VISTA    LGT RAIN  81  33  17 NW7       30.32S
COPPER MTN     FAIR      68  27  21 W17G23    30.69F
BERTHOUD PASS  PTSUNNY   59  45  58 MISG      30.74S
COTTONWOOD PAS FAIR      77  32  19 CALM      30.50S
GUNNISON       FAIR      73  55  53 E9        30.35F
KREMMLING      PTSUNNY   82  32  16 N3        30.29F
LEADVILLE      FAIR      77  30  17 W12G21    30.48F
MONARCH PASS   CLOUDY    61  32  33 E18       30.79F
SALIDA         CLOUDY    78  37  22 W15G21    30.39R
SUNLIGHT       FAIR      70  48  46 CALM      30.62F
WILKERSON PASS FAIR      68  32  26 S3        30.64F
$$

COZ069>075-232200-
...SAN LUIS VALLEY/SANGRE DE CRISTO MOUNTAINS...

CITY           SKY/WX    TMP DP  RH WIND       PRES   REMARKS
ALAMOSA        FAIR      85  37  18 VRB5      30.30F
LA VETA PASS   FAIR      79  36  21 S5        30.52F
SAGUACHE       FAIR      88  32  13 W15G23    30.30F
$$

COZ035-036-038>040-232200-
...NORTHERN COLORADO FRONT RANGE...

CITY           SKY/WX    TMP DP  RH WIND       PRES   REMARKS
DENVER INTL AP FAIR      96  37  12 VRB5      30.06F
DMNS CITY PARK   N/A     91  34  13 W16G36    30.05F
AURORA         MOSUNNY   95  39  14 E7        30.09F
FRONT RANGE AP PTSUNNY   97  36  11 E7        30.09F
ERIE MUNI ARPT FAIR      98  31   9 NW3       30.03F
BOULDER MUN AP FAIR      93  37  14 SE7       30.04F
CENTENNIAL     FAIR      94  33  11 VRB7G20   30.11F
BROOMFIELD     MOSUNNY   97  37  12 S10       30.09F
LONGMONT       FAIR     101  38  11 SE5       30.03F
$$

COZ041-046-047-076>085-087-088-232200-
...PIKES PEAK/PALMER DIVIDE AND SOUTHERN FOOTHILLS...

CITY           SKY/WX    TMP DP  RH WIND       PRES   REMARKS
COLO. SPRINGS  FAIR      92  40  16 NE6G20    30.16F
A. F. ACADEMY  PTSUNNY   86  40  19 VRB2      30.18F
SCHRIEVER AFB  NOT AVBL
ELLICOTT       FAIR       1 N/A N/A NE10      30.14F WCI -15
FALCON         NOT AVBL
FORT CARSON    FAIR      92  40  16 VRB1      30.12F
LIMON          FAIR      95  36  12 N8        30.08F
MONUMENT HILL  FAIR      82  39  21 CALM      30.25F
TRINIDAD       NOT AVBL
$$

COZ042>045-048>051-090-091-232200-
...NORTHEAST COLORADO...

CITY           SKY/WX    TMP DP  RH WIND       PRES   REMARKS
GREELEY ARPT   FAIR      99  43  14 E7        30.01F
AKRON          FAIR      94  45  18 NE7       30.03F
BURLINGTON     FAIR      99  47  17 N13       29.99F
WRAY           NOT AVBL
STERLING       FAIR      99  52  20 E6        29.94F
HOLYOKE        FAIR      99  54  22 W7        29.95F
FORT MORGAN    FAIR      97  50  20 SE10      30.01F
$$

COZ086-089-092>099-232200-
...SOUTHEAST COLORADO...

CITY           SKY/WX    TMP DP  RH WIND       PRES   REMARKS
PUEBLO         FAIR     101  45  15 SE13      30.00F
LA JUNTA       FAIR     104  50  16 N12       29.96F
LAMAR          FAIR     103  55  20 VRB3      29.90F
SPRINGFIELD      N/A    103  48  15 S12       29.96F
$$



USA.gov is the U.S. government's official web portal to all federal, state and local government web resources and services.